{"data":{"norad_id":64191,"epoch":"2026-09-20T05:43:31.806048Z","epoch_age_seconds":162928,"freshness":"FRESH","line1":"1 64191U 25113X   26263.23856257  .00017909  00000+0  53966-3 0  9997","line2":"2 64191  53.1577 266.6013 0002184  65.2492 294.8738 15.34414417 74824","mean_motion":15.34414417,"eccentricity":0.0002184,"inclination_deg":53.1577,"raan_deg":266.6013,"arg_perigee_deg":65.2492,"mean_anomaly_deg":294.8738,"bstar":0.00053966,"rev_number":7482,"period_min":93.846876309687,"perigee_km":461.16636003036,"apogee_km":464.15442033039,"semimajor_km":6840.7973901804,"source":"CELESTRAK","updated_at":"2026-09-21T09:00:35.268241Z"}}